GJS1978 KMDT-KEWR

Flight info

Callsign GJS1978
Flight time 0h 38m
Altitude 15000
Route DQO PHLBO4
Aircraft CRJ7/M-VGDW/C

Departure

Time 2026-04-26 00:05
Airport Harrisburg International Airport (KMDT)

Arrival

Time 2026-04-26 00:43
Airport Newark Liberty International Airport (KEWR)
Time Latitude Longitude Altitude Speed Heading
2026-04-25 23:58 40.19500 -76.75723 309 ft 2 kts 35°
2026-04-25 23:58 40.19486 -76.75735 309 ft 2 kts 35°
2026-04-25 23:59 40.19473 -76.75748 309 ft 2 kts 35°
2026-04-25 23:59 40.19472 -76.75747 309 ft 0 kts 65°
2026-04-25 23:59 40.19453 -76.75700 309 ft 16 kts 124°
2026-04-25 23:59 40.19388 -76.75609 311 ft 24 kts 138°
2026-04-26 00:00 40.19202 -76.75525 307 ft 17 kts 228°
2026-04-26 00:00 40.19210 -76.75658 310 ft 14 kts 296°
2026-04-26 00:00 40.19255 -76.75774 311 ft 15 kts 299°
2026-04-26 00:00 40.19310 -76.75917 310 ft 21 kts 296°
2026-04-26 00:01 40.19386 -76.76117 310 ft 28 kts 296°
2026-04-26 00:01 40.19486 -76.76373 307 ft 35 kts 295°
2026-04-26 00:01 40.19599 -76.76666 310 ft 36 kts 296°
2026-04-26 00:01 40.19695 -76.76850 312 ft 14 kts 315°
2026-04-26 00:02 40.19757 -76.76920 319 ft 11 kts 324°
2026-04-26 00:02 40.19784 -76.76985 313 ft 10 kts 292°
2026-04-26 00:02 40.19823 -76.77099 314 ft 19 kts 295°
2026-04-26 00:02 40.19906 -76.77309 312 ft 32 kts 296°
2026-04-26 00:03 40.20013 -76.77587 311 ft 35 kts 297°
2026-04-26 00:03 40.20053 -76.77695 309 ft 7 kts 287°
2026-04-26 00:03 40.20033 -76.77779 309 ft 16 kts 215°
2026-04-26 00:03 40.19910 -76.77778 307 ft 21 kts 132°
2026-04-26 00:04 40.19870 -76.77686 309 ft 3 kts 117°
2026-04-26 00:04 40.19783 -76.77460 310 ft 63 kts 116°
2026-04-26 00:04 40.19477 -76.76675 313 ft 126 kts 116°
2026-04-26 00:04 40.19037 -76.75545 579 ft 148 kts 116°
2026-04-26 00:05 40.18543 -76.74330 1169 ft 158 kts 117°
2026-04-26 00:05 40.17973 -76.72989 1763 ft 179 kts 118°
2026-04-26 00:05 40.17353 -76.71479 2358 ft 199 kts 119°
2026-04-26 00:05 40.16647 -76.69745 2895 ft 233 kts 119°
2026-04-26 00:06 40.15879 -76.67794 3744 ft 249 kts 120°
2026-04-26 00:06 40.15099 -76.65704 4676 ft 264 kts 120°
2026-04-26 00:06 40.14295 -76.63472 5564 ft 279 kts 119°
2026-04-26 00:06 40.13440 -76.61129 6466 ft 292 kts 118°
2026-04-26 00:07 40.12523 -76.58695 7316 ft 305 kts 118°
2026-04-26 00:07 40.11555 -76.56174 8191 ft 315 kts 118°
2026-04-26 00:07 40.10547 -76.53575 9100 ft 325 kts 118°
2026-04-26 00:07 40.09506 -76.50916 10008 ft 333 kts 118°
2026-04-26 00:08 40.08443 -76.48199 10852 ft 339 kts 119°
2026-04-26 00:08 40.07366 -76.45440 11705 ft 344 kts 118°
2026-04-26 00:08 40.06276 -76.42654 12588 ft 347 kts 118°
2026-04-26 00:08 40.05173 -76.39846 13495 ft 345 kts 118°
2026-04-26 00:09 40.04433 -76.36908 14258 ft 342 kts 96°
2026-04-26 00:09 40.04570 -76.33810 14666 ft 347 kts 73°
2026-04-26 00:09 40.05578 -76.30917 14865 ft 356 kts 51°
2026-04-26 00:09 40.07285 -76.28514 14968 ft 369 kts 42°
2026-04-26 00:10 40.08784 -76.25678 15021 ft 393 kts 64°
2026-04-26 00:10 40.09477 -76.22145 15048 ft 411 kts 85°
2026-04-26 00:10 40.09259 -76.18406 15057 ft 419 kts 104°
2026-04-26 00:10 40.08142 -76.14884 15056 ft 424 kts 123°
2026-04-26 00:11 40.06229 -76.11959 15029 ft 426 kts 142°
2026-04-26 00:11 40.03720 -76.09938 15033 ft 425 kts 160°
2026-04-26 00:11 40.00979 -76.08571 15041 ft 430 kts 162°
2026-04-26 00:11 39.98237 -76.06942 15037 ft 438 kts 153°
2026-04-26 00:12 39.95711 -76.04675 15027 ft 446 kts 142°
2026-04-26 00:12 39.93527 -76.01767 15025 ft 452 kts 131°
2026-04-26 00:12 39.91573 -75.98526 15029 ft 457 kts 128°
2026-04-26 00:12 39.89653 -75.95209 15029 ft 460 kts 129°
2026-04-26 00:13 39.87663 -75.91938 15024 ft 462 kts 131°
2026-04-26 00:13 39.85613 -75.88693 15021 ft 465 kts 131°
2026-04-26 00:13 39.83716 -75.85695 15021 ft 467 kts 131°
2026-04-26 00:13 39.81643 -75.82424 15021 ft 470 kts 131°
2026-04-26 00:14 39.80266 -75.80251 15020 ft 471 kts 131°
2026-04-26 00:14 39.78176 -75.76956 15027 ft 473 kts 131°
2026-04-26 00:14 39.75398 -75.72614 15031 ft 464 kts 131°
2026-04-26 00:14 39.73755 -75.69139 15005 ft 443 kts 111°
2026-04-26 00:15 39.73180 -75.65325 14995 ft 423 kts 90°
2026-04-26 00:15 39.73629 -75.61655 15006 ft 404 kts 72°
2026-04-26 00:15 39.74200 -75.59336 15012 ft 393 kts 69°
2026-04-26 00:15 39.75131 -75.56058 15014 ft 380 kts 67°
2026-04-26 00:16 39.76101 -75.52962 15009 ft 370 kts 65°
2026-04-26 00:16 39.77129 -75.49929 15010 ft 367 kts 63°
2026-04-26 00:16 39.78409 -75.47033 14999 ft 363 kts 46°
2026-04-26 00:16 39.80255 -75.44904 15019 ft 359 kts 34°
2026-04-26 00:17 39.82241 -75.42927 15045 ft 359 kts 34°
2026-04-26 00:17 39.84210 -75.40913 15046 ft 360 kts 36°
2026-04-26 00:17 39.84829 -75.40245 15048 ft 361 kts 37°
2026-04-26 00:24 39.85976 -75.38948 15049 ft 362 kts 38°
2026-04-26 00:24 39.87829 -75.36725 15050 ft 363 kts 40°
2026-04-26 00:24 39.89663 -75.34460 14978 ft 365 kts 40°
2026-04-26 00:25 39.91545 -75.32164 14649 ft 375 kts 40°
2026-04-26 00:25 39.93474 -75.29818 14329 ft 383 kts 40°
2026-04-26 00:25 39.95402 -75.27477 14007 ft 373 kts 40°
2026-04-26 00:25 39.97276 -75.25196 13668 ft 365 kts 40°
2026-04-26 00:26 39.99106 -75.22956 13293 ft 357 kts 40°
2026-04-26 00:26 40.00907 -75.20759 12916 ft 351 kts 40°
2026-04-26 00:26 40.02680 -75.18602 12552 ft 346 kts 40°
2026-04-26 00:26 40.04427 -75.16475 12190 ft 341 kts 40°
2026-04-26 00:27 40.06148 -75.14372 11822 ft 337 kts 40°
2026-04-26 00:27 40.07856 -75.12290 11485 ft 334 kts 40°
2026-04-26 00:27 40.09547 -75.10234 11137 ft 331 kts 39°
2026-04-26 00:27 40.11222 -75.08190 10795 ft 329 kts 40°
2026-04-26 00:28 40.12882 -75.06150 10452 ft 326 kts 40°
2026-04-26 00:28 40.14521 -75.04105 10108 ft 325 kts 40°
2026-04-26 00:28 40.16147 -75.02075 9771 ft 323 kts 40°
2026-04-26 00:28 40.17728 -75.00107 9416 ft 321 kts 40°
2026-04-26 00:29 40.19330 -74.98118 9213 ft 314 kts 40°
2026-04-26 00:29 40.20893 -74.96189 9151 ft 303 kts 40°
2026-04-26 00:29 40.22401 -74.94335 9152 ft 292 kts 39°
2026-04-26 00:29 40.23891 -74.92523 8762 ft 295 kts 40°
2026-04-26 00:30 40.25383 -74.90714 8330 ft 298 kts 40°
2026-04-26 00:30 40.26875 -74.88774 7902 ft 300 kts 44°
2026-04-26 00:30 40.28313 -74.86779 7484 ft 302 kts 45°
2026-04-26 00:30 40.29736 -74.84752 7089 ft 302 kts 46°
2026-04-26 00:31 40.31136 -74.82743 6682 ft 302 kts 46°
2026-04-26 00:31 40.32553 -74.80707 6268 ft 302 kts 47°
2026-04-26 00:31 40.33975 -74.78686 5845 ft 301 kts 48°
2026-04-26 00:31 40.35253 -74.76550 5410 ft 295 kts 67°
2026-04-26 00:32 40.36091 -74.74117 5004 ft 290 kts 73°
2026-04-26 00:32 40.36796 -74.71660 4594 ft 287 kts 76°
2026-04-26 00:32 40.38201 -74.66845 3734 ft 279 kts 72°
2026-04-26 00:33 40.38981 -74.64544 3311 ft 273 kts 70°
2026-04-26 00:33 40.39754 -74.62310 2943 ft 264 kts 70°
2026-04-26 00:33 40.40501 -74.60178 2785 ft 250 kts 70°
2026-04-26 00:33 40.41217 -74.58162 2751 ft 233 kts 70°
2026-04-26 00:34 40.41871 -74.56326 2769 ft 212 kts 71°
2026-04-26 00:34 40.42455 -74.54635 2751 ft 194 kts 71°
2026-04-26 00:34 40.42990 -74.53083 2741 ft 180 kts 71°
2026-04-26 00:34 40.43503 -74.51547 2738 ft 187 kts 72°
2026-04-26 00:35 40.44013 -74.49975 2802 ft 185 kts 73°
2026-04-26 00:35 40.44532 -74.48431 2794 ft 186 kts 72°
2026-04-26 00:35 40.45067 -74.46877 2746 ft 188 kts 71°
2026-04-26 00:35 40.45601 -74.45307 2656 ft 189 kts 71°
2026-04-26 00:36 40.46123 -74.43749 2621 ft 189 kts 72°
2026-04-26 00:36 40.46665 -74.42192 2604 ft 183 kts 71°
2026-04-26 00:36 40.47184 -74.40691 2405 ft 178 kts 71°
2026-04-26 00:36 40.47669 -74.39286 2240 ft 160 kts 72°
2026-04-26 00:37 40.48101 -74.38024 2144 ft 143 kts 71°
2026-04-26 00:37 40.48493 -74.36859 2094 ft 134 kts 72°
2026-04-26 00:37 40.48894 -74.35663 2090 ft 152 kts 73°
2026-04-26 00:37 40.49328 -74.34344 2113 ft 166 kts 72°
2026-04-26 00:38 40.49784 -74.32895 2147 ft 177 kts 71°
2026-04-26 00:38 40.50299 -74.31371 2151 ft 187 kts 69°
2026-04-26 00:38 40.50836 -74.29786 2139 ft 193 kts 70°
2026-04-26 00:38 40.51205 -74.28718 2140 ft 190 kts 70°
2026-04-26 00:39 40.51939 -74.27286 2062 ft 195 kts 43°
2026-04-26 00:39 40.53139 -74.26621 2066 ft 177 kts 25°
2026-04-26 00:39 40.54187 -74.25920 2065 ft 166 kts 32°
2026-04-26 00:39 40.55211 -74.25310 2094 ft 156 kts 31°
2026-04-26 00:40 40.56171 -74.24754 2102 ft 148 kts 32°
2026-04-26 00:40 40.57111 -74.24187 2103 ft 150 kts 32°
2026-04-26 00:40 40.58066 -74.23601 2119 ft 153 kts 33°
2026-04-26 00:40 40.59010 -74.23006 2137 ft 148 kts 34°
2026-04-26 00:41 40.59951 -74.22394 1932 ft 154 kts 34°
2026-04-26 00:41 40.60938 -74.21745 1715 ft 163 kts 32°
2026-04-26 00:41 40.61960 -74.21093 1468 ft 163 kts 31°
2026-04-26 00:41 40.62979 -74.20442 1218 ft 162 kts 31°
2026-04-26 00:42 40.63982 -74.19831 943 ft 157 kts 30°
2026-04-26 00:42 40.64960 -74.19229 719 ft 153 kts 30°
2026-04-26 00:42 40.65906 -74.18631 560 ft 147 kts 31°
2026-04-26 00:42 40.66815 -74.18047 387 ft 145 kts 27°
2026-04-26 00:43 40.67717 -74.17457 154 ft 142 kts 28°
2026-04-26 00:43 40.68492 -74.16965 18 ft 103 kts 28°
2026-04-26 00:43 40.68979 -74.16648 19 ft 45 kts 20°
2026-04-26 00:43 40.69179 -74.16591 23 ft 23 kts 360°
2026-04-26 00:44 40.69327 -74.16605 22 ft 36 kts 357°
2026-04-26 00:44 40.69450 -74.16770 21 ft 29 kts 292°
2026-04-26 00:44 40.69529 -74.16990 19 ft 29 kts 274°
2026-04-26 00:44 40.69453 -74.17218 15 ft 21 kts 225°
2026-04-26 00:45 40.69445 -74.17229 15 ft 1 kts 231°